Location: Kitt Peak
(31.9639°N, 111.5992°W)
Time: 14:37:21
(UTC-07:00)

SRMSAT - Pass Details

Date: 20 December 2025
Orbit: 846 x 863 km, 20.0° (Epoch: 13 January)

Event Time Altitude Azimuth Distance (km) Brightness Sun altitude
Exits shadow 03:46:49 11° 125° (SE) 2,397 ? -44.7°
Drops below altitude 10° 03:47:02 10° 123° (ESE) 2,456 ? -44.7°
Sets 03:50:04 0° 110° (ESE) 3,395 ? -44.0°
